LVLHI KRIC-KDCA

Flight info

Callsign LVLHI
Flight time N/A
Altitude 19000
Route ZUNAR OJAAY IRONS IRONS7
Aircraft LJ35/M-SGHRWXY/SB1

Departure

Time 2026-04-29 22:34
Airport Richmond International Airport (KRIC)

Arrival

Time N/A
Airport Ronald Reagan Washington National Airport (KDCA)
Time Latitude Longitude Altitude Speed Heading
2026-04-29 22:04 37.50893 -77.32979 167 ft 0 kts 287°
2026-04-29 22:19 37.50893 -77.32978 167 ft 0 kts 287°
2026-04-29 22:20 37.50890 -77.32968 167 ft 2 kts 292°
2026-04-29 22:20 37.50883 -77.32949 167 ft 2 kts 304°
2026-04-29 22:21 37.50871 -77.32935 167 ft 2 kts 330°
2026-04-29 22:21 37.50855 -77.32929 168 ft 2 kts 358°
2026-04-29 22:21 37.50844 -77.32930 168 ft 1 kts
2026-04-29 22:21 37.50842 -77.32931 168 ft 0 kts
2026-04-29 22:26 37.50853 -77.32928 168 ft 4 kts 14°
2026-04-29 22:26 37.50866 -77.32902 168 ft 5 kts 29°
2026-04-29 22:26 37.50929 -77.32881 166 ft 13 kts 14°
2026-04-29 22:26 37.51040 -77.32849 165 ft 19 kts 15°
2026-04-29 22:27 37.51181 -77.32806 167 ft 22 kts 13°
2026-04-29 22:27 37.51337 -77.32758 167 ft 24 kts 12°
2026-04-29 22:27 37.51505 -77.32710 168 ft 25 kts 14°
2026-04-29 22:27 37.51638 -77.32614 169 ft 22 kts 85°
2026-04-29 22:28 37.51638 -77.32527 169 ft 0 kts 91°
2026-04-29 22:30 37.51638 -77.32528 169 ft 0 kts 91°
2026-04-29 22:31 37.51638 -77.32527 169 ft 1 kts 91°
2026-04-29 22:31 37.51637 -77.32479 170 ft 10 kts 93°
2026-04-29 22:31 37.51593 -77.32456 171 ft 0 kts 193°
2026-04-29 22:32 37.51592 -77.32456 171 ft 0 kts 193°
2026-04-29 22:33 37.51591 -77.32456 171 ft 0 kts 192°
2026-04-29 22:33 37.51588 -77.32457 171 ft 1 kts 190°
2026-04-29 22:33 37.51562 -77.32463 171 ft 15 kts 193°
2026-04-29 22:33 37.51103 -77.32601 167 ft 131 kts 193°
2026-04-29 22:34 37.49989 -77.32966 829 ft 174 kts 194°
2026-04-29 22:34 37.48827 -77.32986 1553 ft 177 kts 170°
2026-04-29 22:34 37.47554 -77.32632 2474 ft 196 kts 170°
2026-04-29 22:34 37.46203 -77.32232 3483 ft 202 kts 169°
2026-04-29 22:35 37.44821 -77.31815 4473 ft 207 kts 169°
2026-04-29 22:35 37.43862 -77.31531 4957 ft 221 kts 170°
2026-04-29 22:35 37.42206 -77.31057 5014 ft 266 kts 169°
2026-04-29 22:35 37.39672 -77.30353 5021 ft 272 kts 169°
2026-04-29 22:36 37.38465 -77.30015 5014 ft 254 kts 169°
2026-04-29 22:36 37.36833 -77.29549 5007 ft 232 kts 169°
2026-04-29 22:36 37.35291 -77.29104 5004 ft 222 kts 169°
2026-04-29 22:36 37.33807 -77.28680 4995 ft 216 kts 170°
2026-04-29 22:37 37.32362 -77.28261 4988 ft 211 kts 169°
2026-04-29 22:37 37.30955 -77.27847 4989 ft 206 kts 169°
2026-04-29 22:37 37.29576 -77.27440 5025 ft 199 kts 169°
2026-04-29 22:37 37.28278 -77.27054 5389 ft 187 kts 169°
2026-04-29 22:38 37.27009 -77.26676 5743 ft 189 kts 169°
2026-04-29 22:38 37.25729 -77.26294 6095 ft 194 kts 170°
2026-04-29 22:38 37.24402 -77.25893 6317 ft 200 kts 169°
2026-04-29 22:38 37.23046 -77.25415 6570 ft 208 kts 158°
2026-04-29 22:39 37.21979 -77.24159 6799 ft 218 kts 120°
2026-04-29 22:39 37.21677 -77.22312 7033 ft 220 kts 82°
2026-04-29 22:39 37.22299 -77.20508 7323 ft 245 kts 46°
2026-04-29 22:39 37.23747 -77.19264 7820 ft 263 kts 15°
2026-04-29 22:40 37.25627 -77.18917 8021 ft 276 kts 357°
2026-04-29 22:40 37.27520 -77.18954 8014 ft 269 kts 355°
2026-04-29 22:40 37.29378 -77.18821 8011 ft 267 kts
2026-04-29 22:40 37.31204 -77.18390 8010 ft 265 kts
2026-04-29 22:41 37.32993 -77.17914 8010 ft 262 kts
2026-04-29 22:41 37.34800 -77.17512 8001 ft 268 kts
2026-04-29 22:41 37.36678 -77.17119 8011 ft 279 kts
2026-04-29 22:41 37.38599 -77.16692 8012 ft 281 kts
2026-04-29 22:42 37.40527 -77.16254 8013 ft 281 kts
2026-04-29 22:42 37.42448 -77.15825 8010 ft 279 kts
2026-04-29 22:42 37.44331 -77.15406 8006 ft 278 kts
2026-04-29 22:42 37.46238 -77.14982 8007 ft 277 kts
2026-04-29 22:43 37.48141 -77.14558 8007 ft 277 kts
2026-04-29 22:43 37.50022 -77.14136 8008 ft 276 kts
2026-04-29 22:43 37.51913 -77.13715 8008 ft 276 kts
2026-04-29 22:43 37.53804 -77.13292 8006 ft 275 kts
2026-04-29 22:44 37.55686 -77.12872 8008 ft 275 kts
2026-04-29 22:44 37.57566 -77.12451 8008 ft 275 kts
2026-04-29 22:44 37.59452 -77.12029 8009 ft 275 kts
2026-04-29 22:44 37.61340 -77.11606 8010 ft 275 kts
2026-04-29 22:45 37.63225 -77.11183 8009 ft 275 kts
2026-04-29 22:45 37.65084 -77.10766 8009 ft 275 kts
2026-04-29 22:45 37.66960 -77.10346 8010 ft 274 kts
2026-04-29 22:45 37.68841 -77.09924 8011 ft 275 kts
2026-04-29 22:46 37.70723 -77.09502 8009 ft 274 kts
2026-04-29 22:46 37.72600 -77.09080 8012 ft 274 kts
2026-04-29 22:46 37.74476 -77.08658 8005 ft 274 kts
2026-04-29 22:46 37.76349 -77.08237 8008 ft 273 kts
2026-04-29 22:47 37.78221 -77.07816 8012 ft 273 kts
2026-04-29 22:47 37.80096 -77.07393 8006 ft 273 kts
2026-04-29 22:47 37.81970 -77.06972 8013 ft 273 kts
2026-04-29 22:47 37.83844 -77.06550 8010 ft 273 kts
2026-04-29 22:48 37.85713 -77.06128 8011 ft 272 kts
2026-04-29 22:48 37.87580 -77.05707 8006 ft 272 kts
2026-04-29 22:48 37.89445 -77.05286 8010 ft 272 kts
2026-04-29 22:48 37.91307 -77.04865 8008 ft 272 kts
2026-04-29 22:49 37.93150 -77.04449 8009 ft 272 kts
2026-04-29 22:49 37.95009 -77.04029 8012 ft 272 kts
2026-04-29 22:49 37.96889 -77.03604 8012 ft 271 kts
2026-04-29 22:49 37.98727 -77.03188 8007 ft 271 kts
2026-04-29 22:50 38.00585 -77.02767 8007 ft 271 kts
2026-04-29 22:50 38.02439 -77.02347 8007 ft 271 kts
2026-04-29 22:50 38.04290 -77.01928 8004 ft 271 kts
2026-04-29 22:50 38.06143 -77.01508 8007 ft 270 kts
2026-04-29 22:51 38.07996 -77.01271 7999 ft 266 kts 354°
2026-04-29 22:51 38.09800 -77.01696 7999 ft 262 kts 339°
2026-04-29 22:51 38.12985 -77.03826 7999 ft 259 kts 328°
2026-04-29 22:52 38.14549 -77.04953 8000 ft 259 kts 328°
2026-04-29 22:52 38.16114 -77.06082 7992 ft 259 kts 328°
2026-04-29 22:52 38.17681 -77.07220 7993 ft 259 kts 328°
2026-04-29 22:52 38.19249 -77.08356 7986 ft 259 kts 328°
2026-04-29 22:53 38.20812 -77.09490 7992 ft 259 kts 328°
2026-04-29 22:53 38.22381 -77.10628 7982 ft 259 kts 328°
2026-04-29 22:53 38.23942 -77.11760 7991 ft 258 kts 328°
2026-04-29 22:53 38.25504 -77.12895 7982 ft 259 kts 328°
2026-04-29 22:54 38.27087 -77.14045 7983 ft 259 kts 328°
2026-04-29 22:54 38.28702 -77.14992 7979 ft 261 kts 341°
2026-04-29 22:54 38.30508 -77.15296 7981 ft 266 kts 357°
2026-04-29 22:54 38.32352 -77.14987 7982 ft 268 kts
2026-04-29 22:55 38.34185 -77.14592 7994 ft 268 kts
2026-04-29 22:55 38.36047 -77.14205 7998 ft 267 kts
2026-04-29 22:55 38.37853 -77.13827 8003 ft 267 kts
2026-04-29 22:55 38.39693 -77.13439 8001 ft 268 kts
2026-04-29 22:56 38.41537 -77.13054 8002 ft 268 kts
2026-04-29 22:56 38.43376 -77.12665 8002 ft 267 kts
2026-04-29 22:56 38.45217 -77.12273 8006 ft 268 kts
2026-04-29 22:56 38.47052 -77.11887 7993 ft 268 kts
2026-04-29 22:57 38.48892 -77.11500 7987 ft 268 kts
2026-04-29 22:57 38.50731 -77.11112 7990 ft 267 kts
2026-04-29 22:57 38.52566 -77.10725 7934 ft 268 kts
2026-04-29 22:57 38.54413 -77.10335 7643 ft 269 kts
2026-04-29 22:58 38.56246 -77.09947 7352 ft 266 kts
2026-04-29 22:58 38.58063 -77.09563 7063 ft 263 kts
2026-04-29 22:58 38.59868 -77.09181 6775 ft 262 kts
2026-04-29 22:58 38.61646 -77.08805 6378 ft 260 kts
2026-04-29 22:59 38.63432 -77.08427 5905 ft 255 kts
2026-04-29 22:59 38.65143 -77.08061 5825 ft 237 kts
2026-04-29 22:59 38.66729 -77.07722 5961 ft 229 kts
2026-04-29 22:59 38.68289 -77.07396 5962 ft 227 kts
2026-04-29 23:00 38.69844 -77.07069 5963 ft 225 kts
2026-04-29 23:00 38.71383 -77.06743 5964 ft 224 kts
2026-04-29 23:00 38.72928 -77.06424 5959 ft 223 kts
2026-04-29 23:00 38.74422 -77.06675 5967 ft 216 kts 333°
2026-04-29 23:01 38.75577 -77.07846 5964 ft 214 kts 310°
2026-04-29 23:01 38.76510 -77.09335 5965 ft 214 kts 309°
2026-04-29 23:01 38.77437 -77.10811 5964 ft 214 kts 309°
2026-04-29 23:01 38.78380 -77.12282 5966 ft 213 kts 309°